Regional Weather Roundup
Issued by NWS Sterling, VA

Home | Current Version | Previous Version | Graphics & Text | Print | Product List | Glossary On
Versions: 1 2 3 4 5 6 7 8 9 10 11 12 13 14 15 16 17 18 19 20 21 22 23 24 25 26 27 28 29 30 31 32 33 34 35 36 37 38 39 40 41 42 43 44 45 46 47 48 49 50
000
ASUS41 KLWX 201811
RWRLWX

REGIONAL WEATHER ROUNDUP
NATIONAL WEATHER SERVICE BALTIMORE MD/WASHINGTON DC
200 PM EDT FRI OCT 20 2017

Note: "FAIR" indicates few or no clouds below 12,000 feet
with no significant weather and/or obstructions to visibility.
 TC=TEMPERATURE CELSIUS

 * =Non NWS site. Station does not report precipitation (e.g. rain,
    snow, etc.), thunder, or fog.

DCZ001-MDZ009-015-VAZ040>042-051-053>054-201900-
WASHINGTON METRO

CITY           SKY/WX    TMP DP  RH WIND       PRES   REMARKS
WASHINGTON NAT PTSUNNY   76  46  34 NW13      30.22F
DULLES         MOSUNNY   74  39  28 N13       30.22F
ANDREWS AFB    SUNNY     74  45  35 N8        30.20F
FT BELVOIR     SUNNY     75  46  34 W12G20    30.21F
QUANTICO       MOSUNNY   77  46  33 NW14      30.22F
COLLEGE PARK*  SUNNY     73  46  38 N5        30.21F
LEESBURG*      SUNNY     73  43  33 N9        30.24F
MANASSAS*      SUNNY     75  47  36 N8        30.23F
GAITHERSBURG*  SUNNY     72  50  45 W8        30.23F

$$

MDZ006>007-011-014-201900-
BALTIMORE METRO

CITY           SKY/WX    TMP DP  RH WIND       PRES   REMARKS
BWI AIRPORT    MOSUNNY   73  46  38 VRB5      30.20F
MD SCIENCE CTR   N/A     74  41  30 MISG      30.20F
MARTIN STATE   MOSUNNY   75  46  35 NW8       30.20F
ANNAPOLIS      SUNNY     75  51  43 NW7       30.20F
FORT MEADE*    SUNNY     73  45  35 N7        30.23F

$$

MDZ012-015-019>023-201900-
MARYLAND EASTERN SHORE

CITY           SKY/WX    TMP DP  RH WIND       PRES   REMARKS
OCEAN CITY     SUNNY     75  54  47 NE7       30.18F
SALISBURY      SUNNY     76  49  38 N12       30.18F
CAMBRIDGE*     SUNNY     73  50  43 NW8       30.20F
EASTON*        SUNNY     75  46  35 N10G16    30.24F

$$

MDZ017>025-201900-
SOUTHERN MARYLAND

CITY           SKY/WX    TMP DP  RH WIND       PRES   REMARKS
PATUXENT RIVER MOSUNNY   74  52  46 NE10      30.20F
ST INIGOES     SUNNY     75  53  46 NE9       30.20F
LEONARDTOWN*   NOT AVBL

$$

MDZ003>005-201900-
NORTH CENTRAL MARYLAND

CITY           SKY/WX    TMP DP  RH WIND       PRES   REMARKS
FREDERICK*     SUNNY     75  37  25 N5        30.25F
HAGERSTOWN APT SUNNY     72  39  30 NW9       30.23F
WESTMINSTER*   SUNNY     70  39  32 NW7       30.22F

$$

MDZ501>502-201900-
WESTERN MARYLAND

CITY           SKY/WX    TMP DP  RH WIND       PRES   REMARKS
OAKLAND*       SUNNY     61  37  41 W5        30.28F
CUMBERLAND*    SUNNY     73  37  27 NW3       30.28F

$$

VAZ025>031-201900-
SHENANDOAH VALLEY

CITY           SKY/WX    TMP DP  RH WIND       PRES   REMARKS
WINCHESTER*    SUNNY     70  39  32 N6        30.24F
FRONT ROYAL*   SUNNY     73  43  33 N8        30.23F
LURAY*         SUNNY     75  46  35 NE3       30.23F
NEW MARKET*    SUNNY     76  47  36 E6        30.22F
STAUNTON*      SUNNY     74  48  39 N5        30.25F HAZE
WAYNESBORO*    SUNNY     72  48  41 N6        30.25F

$$

WVZ021-048>050-054>055-201900-
EASTERN WEST VIRGINIA PANHANDLE

CITY           SKY/WX    TMP DP  RH WIND       PRES   REMARKS
MARTINSBURG    SUNNY     72  43  35 NW6       30.23F
PETERSBURG*    SUNNY     72  49  44 CALM      30.24F

$$

VAZ036>039-050-201900-
CENTRAL FOOTHILLS

CITY           SKY/WX    TMP DP  RH WIND       PRES   REMARKS
CHARLOTTESVILL SUNNY     78  48  34 VRB3      30.21F
CULPEPER*        N/A     76  47  36 N8        30.22F
ORANGE*        SUNNY     75  50  41 CALM      30.21F
GORDONSVILLE*  SUNNY     77  53  42 CALM      30.21F
WARRENTON*     SUNNY     78  42  27 NW9       30.22F

$$

VAZ055>057-201900-
NORTH AND CENTRAL PIEDMONT

CITY           SKY/WX    TMP DP  RH WIND       PRES   REMARKS
FREDERICKSBRG* SUNNY     77  51  41 NW9       30.20F
STAFFORD*      SUNNY     76  47  36 N9        30.25F

$$

NCZ024-NYZ072-PAZ021-071-VAZ022-071-201900-
OTHER REGIONAL OBSERVATIONS

CITY           SKY/WX    TMP DP  RH WIND       PRES   REMARKS
NEW YORK CITY  SUNNY     72  28  19 NW8G17    30.13F
PHILADELPHIA   MOSUNNY   73  37  27 NW12      30.17F
PITTSBURGH     MOSUNNY   69  25  19 VRB3      30.28F
ROANOKE        SUNNY     72  50  45 CALM      30.27F
RICHMOND       MOSUNNY   78  53  41 VRB6      30.21F
RALEIGH        MOSUNNY   75  46  35 VRB6      30.23F

$$

ANZ530>537-201900-
MARINE OBSERVATIONS

STATION/POSITION TIME  TEMP    WIND        PRES
                       AIR SEA DIR/SP/G
                 (UTC) (F)     (DEG/KT/KT) (MB)
THOMAS PT LIGHT  1800   68 68   50/  8/  9   N/A
BALT KEY BRIDGE  1742   71     290/  5/  6 1022.5F
COVE POINT       1742   68      40/ 11/ 12 1023.4F
LEWISETTA        1742   71 65   20/  3/  6 1022.8F
SOLOMONS ISLAND  1742   71 70   20/  5/  8 1022.3F
PINEY POINT      1736          310/  9/ 10   N/A

$$




USA.gov is the U.S. government's official web portal to all federal, state and local government web resources and services.